Weather History for KTBN - January, 2014

Change the Weather History Date:

Sunday, January 12, 2014

  Actual Average Record
Temperature  
Mean Temperature 47 °F -  
Max Temperature 64 °F 38 °F 68 °F (2005)
Min Temperature 30 °F 26 °F 0 °F (1997)
Degree Days  
Heating Degree Days 18    
Moisture  
Dew Point 30 °F    
Average Humidity 58    
Maximum Humidity 99    
Minimum Humidity 26    
Precipitation  
Precipitation 0.00 in - - ()
Sea Level Pressure  
Sea Level Pressure 29.80 in    
Wind  
Wind Speed 9 mph (South)    
Max Wind Speed 20 mph    
Max Gust Speed 32 mph    
Visibility 10 miles    
Events      
Averages and records for this station are not official NWS values.
T = Trace of Precipitation, MM = Missing Value Source: NWS Daily Summary

Daily Weather History Graph

Daily Weather History Graph

Search for Another Location

Airport or City:

Trip Planner

Search our weather history database for the weather conditions in past years. The results will help you decide how hot, cold, wet, or windy it might be!

Date:

Astronomy

Jan. 12, 2014 Rise Set
Actual Time 7:23 AM CST 5:10 PM CST
Civil Twilight 6:54 AM CST 5:39 PM CST
Nautical Twilight 6:22 AM CST 6:11 PM CST
Astronomical Twilight 5:50 AM CST 6:43 PM CST
Moon 2:38 PM CST (1/12) 4:23 AM CST (1/12)
Length of Visible Light 10h 44m
Length of Day
9h 47m
Waxing Gibbous, 90% of the Moon is Illuminated
Jan 12
Waxing Gibbous
Jan 15
Full
Jan 23
Last Quarter
Jan 30
New
Feb 6
First Quarter

Hourly Weather History & Observations

Time (CST) Temp. Windchill Dew Point Humidity Pressure Visibility Wind Dir Wind Speed Gust Speed Precip Events Conditions
12:58 AM 32.5 °F 28.1 °F 32.4 °F 99% 29.98 in 10.0 mi SW 4.6 mph - N/A   Clear
1:58 AM 32.5 °F 28.1 °F 32.0 °F 98% 29.97 in 10.0 mi South 4.6 mph - N/A   Clear
2:58 AM 31.6 °F 27.0 °F 31.5 °F 99% 29.96 in 10.0 mi South 4.6 mph - N/A   Clear
3:58 AM 32.9 °F 27.5 °F 30.9 °F 92% 29.97 in 10.0 mi SSW 5.8 mph - N/A   Clear
4:58 AM 32.0 °F 25.6 °F 30.2 °F 93% 29.94 in 10.0 mi SSE 6.9 mph - N/A   Clear
5:58 AM 30.4 °F 22.2 °F 29.5 °F 96% 29.93 in 10.0 mi SE 9.2 mph - N/A   Clear
6:58 AM 30.4 °F 23.6 °F 29.3 °F 96% 29.93 in 10.0 mi SSE 6.9 mph - N/A   Clear
7:58 AM 32.5 °F 25.5 °F 30.4 °F 92% 29.94 in 10.0 mi SE 8.1 mph - N/A   Clear
8:58 AM 39.4 °F 33.2 °F 31.5 °F 73% 29.93 in 10.0 mi SSE 9.2 mph - N/A   Clear
9:58 AM 50.4 °F - 28.4 °F 43% 29.91 in 10.0 mi South 12.7 mph 18.4 mph N/A   Clear
10:58 AM 55.8 °F - 28.0 °F 35% 29.86 in 10.0 mi South 16.1 mph 26.5 mph N/A   Clear
11:58 AM 57.6 °F - 29.1 °F 34% 29.79 in 10.0 mi SSW 10.4 mph 32.2 mph N/A   Clear
12:58 PM 60.1 °F - 29.7 °F 32% 29.73 in 10.0 mi South 16.1 mph 29.9 mph N/A   Clear
1:58 PM 61.5 °F - 30.4 °F 31% 29.69 in 10.0 mi South 16.1 mph 28.8 mph N/A   Clear
2:58 PM 64.0 °F - 28.2 °F 26% 29.65 in 10.0 mi South 19.6 mph 29.9 mph N/A   Clear
3:58 PM 63.7 °F - 27.7 °F 26% 29.66 in 10.0 mi South 16.1 mph 31.1 mph N/A   Clear
4:58 PM 60.4 °F - 27.9 °F 29% 29.65 in 10.0 mi South 17.3 mph 26.5 mph N/A   Clear
5:58 PM 57.2 °F - 29.1 °F 34% 29.66 in 10.0 mi South 15.0 mph 24.2 mph N/A   Clear
6:58 PM 55.8 °F - 29.7 °F 37% 29.69 in 10.0 mi South 10.4 mph 27.6 mph N/A   Clear
7:58 PM 54.9 °F - 30.9 °F 40% 29.71 in 10.0 mi South 12.7 mph 19.6 mph N/A   Clear
8:58 PM 54.1 °F - 31.8 °F 43% 29.71 in 10.0 mi South 10.4 mph 19.6 mph N/A   Clear
9:58 PM 52.5 °F - 31.8 °F 45% 29.67 in 10.0 mi South 12.7 mph - N/A   Clear
10:58 PM 52.5 °F - 32.5 °F 47% 29.66 in 10.0 mi South 13.8 mph 19.6 mph N/A   Clear
11:58 PM 52.9 °F - 32.4 °F 46% 29.64 in 10.0 mi South 15.0 mph 25.3 mph N/A   Clear